This demonstration page uses our WeatherBlox Daily Observations layout. Learn more.

Left ArrowRight Arrow

39.01783, -85.05884

Hourly Observations for October 28, 2015

Temp ( °F °C ) Dew Point ( °F °C ) Humidity (%) Winds ( mph kmh ) Pressure ( in mb ) Visibility ( mi km ) Precip ( " mm )
12:21 am 00:21 Cloudy with Rain 55 13 54 12 94 94 ESE 23 37 29.83 1010 5 8 0.02 0.51
12:42 am 00:42 Cloudy with Heavy Rain 55 13 54 12 94 94 SE 20 31 29.83 1010 3 5 N/A
12:52 am 00:52 Cloudy with Rain 55 12.8 54 12.2 96 96 SE 21 33 29.80 1009 3 4 0.11 2.79
1:15 am 01:15 Cloudy with Rain 55 13 54 12 94 94 ESE 22 35 29.77 1008 3 4 0.06 1.52
1:32 am 01:32 Cloudy with Rain 55 13 54 12 94 94 ESE 24 39 29.77 1008 3 5 N/A
1:52 am 01:52 Cloudy with Rain 55 12.8 54 12.2 96 96 SE 23 37 29.75 1007 3 5 0.15 3.81
2:52 am 02:52 Cloudy with Light Rain 55 12.8 54 12.2 96 96 SE 23 37 29.70 1006 3 5 0.05 1.27
3:14 am 03:14 Cloudy with Heavy Rain 55 13 55 13 100 100 SE 22 35 29.71 1006 3 4 0.05 1.27
3:35 am 03:35 Cloudy with Rain 55 13 55 13 100 100 SE 21 33 29.68 1005 3 5 0.14 3.56
3:52 am 03:52 Cloudy with Rain 56 13.3 55 12.8 97 97 SSE 18 30 29.67 1005 3 5 0.17 4.32
4:52 am 04:52 Cloudy with Light Rain 56 13.3 55 12.8 97 97 SSE 12 19 29.64 1004 4 6 0.15 3.81
5:36 am 05:36 Cloudy with Strong Thunderstorms 55 13 55 13 100 100 S 12 19 29.65 1004 3 4 N/A
5:52 am 05:52 Cloudy with Heavy Rain 56 13.3 55 12.8 97 97 S 9 15 29.65 1004 3 5 0.23 5.84
6:04 am 06:04 Cloudy with Heavy Rain 55 13 54 12 94 94 SSE 12 19 29.65 1004 3 4 0.13 3.30
6:11 am 06:11 Cloudy with Rain 55 13 54 12 94 94 SSE 9 15 29.65 1004 3 5 0.19 4.83
6:25 am 06:25 Cloudy with Light Rain 55 13 54 12 94 94 S 9 15 29.65 1004 6 10 0.23 5.84
6:52 am 06:52 Cloudy with Rain 56 13.3 55 12.8 97 97 S 8 13 29.64 1004 4 6 0.28 7.11
7:23 am 07:23 Cloudy with Light Rain 55 13 55 13 100 100 SSE 8 13 29.65 1004 6 10 0.02 0.51
7:46 am 07:46 Cloudy with Heavy Rain 57 14 55 13 94 94 SSE 8 13 29.59 1002 2 3 0.12 3.05
7:52 am 07:52 Cloudy with Rain 57 13.9 56 13.3 96 96 SSE 9 15 29.62 1003 2 3 0.15 3.81
8:52 am 08:52 Cloudy with Light Rain 57 13.9 57 13.9 100 100 S 13 20 29.61 1003 3 4 0.12 3.05
9:52 am 09:52 Cloudy with Light Rain 59 15 58 14.4 96 96 S 12 19 29.60 1002 3 4 0.01 0.25
10:07 am 10:07 Cloudy with Light Rain 61 16 57 14 88 88 S 15 24 29.56 1001 4 6 0.01 0.25
10:48 am 10:48 Cloudy with Rain 61 16 59 15 94 94 S 10 17 29.56 1001 3 4 0.02 0.51
10:52 am 10:52 Cloudy with Light Rain 61 16.1 59 15 93 93 S 12 19 29.58 1002 3 4 0.02 0.51
11:16 am 11:16 Cloudy with Light Rain 61 16 61 16 100 100 S 14 22 29.56 1001 3 5 N/A
11:31 am 11:31 Cloudy with Drizzle 63 17 61 16 94 94 S 14 22 29.56 1001 3 4 N/A
11:52 am 11:52 Cloudy with Light Rain 63 17.2 61 16.1 93 93 S 13 20 29.57 1001 3 4 N/A
12:01 pm 12:01 Cloudy with Mist and Fog 63 17 61 16 94 94 S 14 22 29.56 1001 4 6 N/A
12:49 pm 12:49 Cloudy 64 18 63 17 94 94 SSW 12 19 29.56 1001 8 13 0.01 0.25
12:52 pm 12:52 Cloudy 65 18.3 62 16.7 90 90 SSW 9 15 29.57 1001 8 13 0.01 0.25
1:12 pm 13:12 Cloudy with Light Rain 63 17 61 16 94 94 WSW 9 15 29.56 1001 3 5 N/A
1:52 pm 13:52 Cloudy 64 17.8 60 15.6 87 87 WSW 14 22 29.56 1001 8 13 N/A
2:12 pm 14:12 Mostly Cloudy 66 19 61 16 83 83 SW 14 22 29.53 1000 10 16 N/A
2:52 pm 14:52 Mostly Cloudy 66 18.9 57 13.9 73 73 WSW 16 26 29.54 1000 10 16 N/A
3:52 pm 15:52 Mostly Cloudy 66 18.9 57 13.9 73 73 WSW 10 17 29.54 1000 10 16 N/A
4:52 pm 16:52 Mostly Cloudy 66 18.9 56 13.3 70 70 SW 15 24 29.56 1001 10 16 N/A
5:52 pm 17:52 Mostly Cloudy 64 17.8 56 13.3 75 75 WSW 7 11 29.57 1001 10 16 N/A
6:52 pm 18:52 Mostly Cloudy 63 17.2 56 13.3 78 78 WSW 7 11 29.59 1002 10 16 N/A
7:52 pm 19:52 Mostly Cloudy 61 16.1 53 11.7 75 75 W 10 17 29.61 1003 10 16 N/A
8:52 pm 20:52 Partly Cloudy 58 14.4 51 10.6 78 78 W 7 11 29.62 1003 10 16 N/A
9:52 pm 21:52 Mostly Cloudy 57 13.9 50 10 78 78 WSW 7 11 29.63 1004 10 16 N/A
10:52 pm 22:52 Cloudy 57 13.9 49 9.4 74 74 SW 7 11 29.64 1004 10 16 N/A
11:52 pm 23:52 Cloudy with Light Rain 56 13.3 51 10.6 84 84 SW 8 13 29.64 1004 10 16 0.01 0.25

Powered by AerisWeather